Location: Nashville
(36.1660°N, 86.7840°W)
Time: 06:15:52
(UTC-05:00)

AO-109 - Visible Passes

Search period start: 22 May 2022 00:00
Search period end: 01 June 2022 00:00
Orbit: 483 x 500 km, 60.7° (Epoch: 21 May)

Date Brightness Start Highest point End Pass type
(mag) Time Alt. Az. Time Alt. Az. Time Alt. Az.
22 May ? 01:23:34 10° NNW 01:24:02 13° NNW 01:24:02 13° NNW visible
23 May ? 00:59:46 10° NNW 01:00:22 14° NNW 01:00:22 14° NNW visible
24 May ? 00:35:57 10° NNW 00:36:46 15° N 00:36:46 15° N visible
25 May ? 00:12:06 10° NNW 00:13:12 17° N 00:13:12 17° N visible
25 May ? 23:48:15 10° NNW 23:49:40 18° N 23:49:40 18° N visible
26 May ? 23:24:22 10° N 23:26:10 20° NNE 23:26:10 20° NNE visible
27 May ? 23:00:29 10° N 23:02:40 20° NNE 23:02:40 20° NNE visible
28 May ? 22:36:35 10° N 22:39:11 19° NE 22:39:11 19° NE visible
29 May ? 00:13:33 10° NW 00:13:38 10° NW 00:13:38 10° NW visible
29 May ? 22:12:41 10° N 22:15:20 18° NE 22:15:44 17° NE visible
29 May ? 23:49:25 10° NW 23:50:10 15° NW 23:50:10 15° NW visible
30 May ? 21:48:46 10° N 21:51:12 16° NE 21:52:18 14° ENE visible
30 May ? 23:25:15 10° NW 23:26:44 21° WNW 23:26:44 21° WNW visible
31 May ? 21:24:53 10° N 21:27:01 14° NE 21:28:52 11° ENE visible
31 May ? 23:01:06 10° NW 23:03:19 31° WNW 23:03:19 31° WNW visible
